EW2049 Weather Reports


Display with metric or nautical units.
time (UTC)temp
F
wind
direction
speed
MPH
gust
MPH
rain 1hr
in
rain 24hr
in
rain mn
in
humidity
%
barometer
mb
20240526062842 77 211 4.0 11.0 0.00 0.00 0.00 91 1004.9
20240526061840 77 142 3.0 11.0 0.00 0.00 0.00 91 1005.1
20240526060815 77 141 3.0 11.0 0.00 0.00 0.00 90 1005.0
20240526055804 78 111 2.0 9.0 0.00 0.00 0.00 88 1005.0
20240526054813 78 154 2.0 17.0 0.00 0.00 0.00 87 1005.0
20240526053759 78 113 3.0 17.0 0.00 0.00 0.00 86 1005.1
20240526051702 79 139 4.0 14.0 0.00 0.00 0.00 83 1005.3
20240526050634 79 94 4.0 13.0 0.00 0.00 0.00 81 1005.3
20240526044416 80 119 3.0 11.0 0.00 0.00 0.00 77 1005.4
20240526043425 80 151 4.0 14.0 0.00 0.00 0.00 75 1005.3
20240526042419 81 129 4.0 14.0 0.00 0.00 0.00 74 1005.5
20240526041350 81 106 4.0 15.0 0.00 0.00 0.00 72 1005.3
20240526040316 82 179 5.0 15.0 0.00 0.00 0.00 69 1005.4
20240526033030 83 160 4.0 13.0 0.00 0.00 0.00 65 1005.2
20240526032048 83 133 4.0 13.0 0.00 0.00 0.00 65 1005.2
20240526023754 85 185 4.0 13.0 0.00 0.00 0.00 68 1004.7
20240526022726 85 70 4.0 17.0 0.00 0.00 0.00 69 1004.5
20240526021724 86 140 5.0 17.0 0.00 0.00 0.00 68 1004.3
20240526020650 86 134 4.0 15.0 0.00 0.00 0.00 68 1004.2
20240526015639 86 100 3.0 13.0 0.00 0.00 0.00 71 1004.2
20240526013503 88 99 4.0 12.0 0.00 0.00 0.00 70 1004.0
20240526012442 88 160 4.0 11.0 0.00 0.00 0.00 70 1003.7
20240526011506 89 167 4.0 11.0 0.00 0.00 0.00 69 1003.7
20240526010507 89 65 3.0 14.0 0.00 0.00 0.00 66 1003.5
20240526004305 91 144 5.0 19.0 0.00 0.00 0.00 61 1003.1
20240526003242 91 108 5.0 19.0 0.00 0.00 0.00 61 1002.9
20240526002216 91 127 4.0 12.0 0.00 0.00 0.00 61 1002.8
20240526001228 92 77 4.0 12.0 0.00 0.00 0.00 59 1002.6
20240525235104 93 125 4.0 12.0 0.00 0.00 0.00 56 1002.7
20240525234051 94 190 4.0 12.0 0.00 0.00 0.00 56 1002.8
20240525231853 95 120 3.0 14.0 0.00 0.00 0.00 56 1002.8
20240525230853 95 160 4.0 14.0 0.00 0.00 0.00 57 1002.9
20240525225854 95 158 4.0 13.0 0.00 0.00 0.00 56 1002.9
20240525223801 95 212 4.0 13.0 0.00 0.00 0.00 57 1003.0
20240525222816 95 129 4.0 13.0 0.00 0.00 0.00 57 1002.8
20240525221803 95 123 4.0 11.0 0.00 0.00 0.00 57 1002.7
20240525220730 95 143 3.0 12.0 0.00 0.00 0.00 58 1002.8
20240525215728 95 143 4.0 14.0 0.00 0.00 0.00 59 1002.9
20240525214745 95 74 4.0 14.0 0.00 0.00 0.00 60 1003.0
20240525213732 95 122 4.0 14.0 0.00 0.00 0.00 60 1003.0
20240525212706 95 133 5.0 14.0 0.00 0.00 0.00 59 1003.1
20240525211641 95 107 5.0 14.0 0.00 0.00 0.00 60 1003.2
20240525210609 96 86 3.0 12.0 0.00 0.00 0.00 60 1003.3
20240525205615 95 141 4.0 17.0 0.00 0.00 0.00 60 1003.5
20240525204607 94 83 5.0 17.0 0.00 0.00 0.00 62 1003.8
20240525202431 95 100 4.0 17.0 0.00 0.00 0.00 62 1004.1
20240525201451 95 234 5.0 17.0 0.00 0.00 0.00 63 1004.4
20240525200455 94 197 4.0 11.0 0.00 0.00 0.00 62 1004.6
20240525195503 95 188 4.0 14.0 0.00 0.00 0.00 62 1004.8
20240525194432 94 203 4.0 15.0 0.00 0.00 0.00 62 1005.0
20240525193425 94 130 4.0 15.0 0.00 0.00 0.00 65 1005.1
20240525192354 94 81 4.0 12.0 0.00 0.00 0.00 65 1005.2
20240525191415 94 122 4.0 17.0 0.00 0.00 0.00 64 1005.4
20240525190341 93 164 4.0 17.0 0.00 0.00 0.00 65 1005.5
20240525185353 93 146 4.0 12.0 0.00 0.00 0.00 65 1005.6
20240525184318 92 101 5.0 13.0 0.00 0.00 0.00 67 1005.9
20240525183324 92 139 4.0 13.0 0.00 0.00 0.00 68 1006.1
20240525182305 92 186 3.0 13.0 0.00 0.00 0.00 69 1006.3
20240525181248 92 139 3.0 13.0 0.00 0.00 0.00 70 1006.5
20240525180258 91 145 4.0 13.0 0.00 0.00 0.00 70 1006.5
20240525175309 91 125 3.0 14.0 0.00 0.00 0.00 71 1006.7
20240525174314 90 178 2.0 14.0 0.00 0.00 0.00 70 1006.8
20240525172148 89 51 3.0 10.0 0.00 0.00 0.00 75 1007.0
20240525171137 89 158 3.0 10.0 0.00 0.00 0.00 75 1007.2
20240525165012 87 133 4.0 11.0 0.00 0.00 0.00 77 1007.3
20240525164010 87 130 4.0 11.0 0.00 0.00 0.00 77 1007.5
20240525163012 86 194 4.0 11.0 0.00 0.00 0.00 78 1007.5
20240525162002 87 141 2.0 8.0 0.00 0.00 0.00 77 1007.6
20240525160944 86 94 2.0 10.0 0.00 0.00 0.00 80 1007.7
20240525155913 85 112 3.0 11.0 0.00 0.00 0.00 82 1007.7
20240525154857 84 136 3.0 11.0 0.00 0.00 0.00 82 1007.9
20240525153830 84 134 2.0 10.0 0.00 0.00 0.00 83 1007.8
20240525152805 83 188 1.0 7.0 0.00 0.00 0.00 85 1007.9
20240525151744 83 175 1.0 6.0 0.00 0.00 0.00 84 1007.9
20240525150719 82 172 1.0 12.0 0.00 0.00 0.00 86 1008.0
20240525145716 82 172 1.0 12.0 0.00 0.00 0.00 87 1007.9
20240525144645 81 91 1.0 5.0 0.00 0.00 0.00 89 1008.1
20240525142522 81 218 2.0 7.0 0.00 0.00 0.00 90 1008.0
20240525140353 80 208 1.0 8.0 0.00 0.00 0.00 92 1007.8
20240525133052 78 119 1.0 7.0 0.00 0.00 0.00 94 1007.6
20240525132018 78 154 1.0 4.0 0.00 0.00 0.00 95 1007.6
20240525130945 78 86 1.0 7.0 0.00 0.00 0.00 95 1007.6
20240525125950 78 90 1.0 5.0 0.00 0.00 0.00 95 1007.3
20240525124948 77 176 0.0 3.0 0.00 0.00 0.00 96 1007.3
20240525123919 77 130 0.0 5.0 0.00 0.00 0.00 96 1007.3
20240525122853 77 186 0.0 4.0 0.00 0.00 0.00 97 1007.2
20240525121844 77 132 0.0 4.0 0.00 0.00 0.00 97 1007.2
20240525120826 77 141 0.0 2.0 0.00 0.00 0.00 97 1007.0
20240525115848 77 70 0.0 4.0 0.00 0.00 0.00 97 1007.0
20240525114814 77 165 0.0 4.0 0.00 0.00 0.00 97 1006.8
20240525112643 76 126 0.0 2.0 0.00 0.00 0.00 96 1006.7
20240525111658 77 147 0.0 4.0 0.00 0.00 0.00 96 1006.6
20240525110713 77 145 0.0 3.0 0.00 0.00 0.00 96 1006.6
20240525105730 77 124 0.0 4.0 0.00 0.00 0.00 96 1006.6
20240525104729 77 108 0.0 4.0 0.00 0.00 0.00 96 1006.5
20240525103752 77 158 0.0 4.0 0.00 0.00 0.00 96 1006.6
20240525102737 77 125 0.0 4.0 0.00 0.00 0.00 96 1006.4
20240525101713 77 157 0.0 5.0 0.00 0.00 0.00 96 1006.5
20240525100707 77 255 0.0 5.0 0.00 0.00 0.00 95 1006.5
20240525095656 77 124 1.0 7.0 0.00 0.00 0.00 95 1006.5
20240525093614 77 110 1.0 5.0 0.00 0.00 0.00 95 1006.5
20240525092617 77 135 1.0 4.0 0.00 0.00 0.00 95 1006.4
20240525091624 77 134 1.0 5.0 0.00 0.00 0.00 95 1006.3
20240525090622 77 142 1.0 7.0 0.00 0.00 0.00 95 1006.3
20240525084514 77 105 1.0 5.0 0.00 0.00 0.00 94 1006.5
20240525083515 77 113 0.0 2.0 0.00 0.00 0.00 94 1006.5
20240525082448 77 343 1.0 6.0 0.00 0.00 0.00 94 1006.5
20240525081451 77 155 0.0 4.0 0.00 0.00 0.00 94 1006.5
20240525080449 77 94 1.0 4.0 0.00 0.00 0.00 94 1006.4
20240525075424 77 155 0.0 4.0 0.00 0.00 0.00 94 1006.6
20240525074354 77 94 0.0 4.0 0.00 0.00 0.00 93 1006.7
20240525073327 78 114 0.0 4.0 0.00 0.00 0.00 93 1006.7
20240525072303 78 86 0.0 4.0 0.00 0.00 0.00 93 1006.8
20240525065018 78 193 1.0 6.0 0.00 0.00 0.00 92 1006.6